Location: Marion Hill
(40.7303°N, 80.2959°W)
Time: 18:34:23
(UTC+00:00)

SKYMED 2 - Pass Details

Date: 29 October 2020
Orbit: 621 x 623 km, 97.9° (Epoch: 24 November)

Event Time Altitude Azimuth Distance (km) Brightness Sun altitude
Rises 22:43:36 0° 24° (NNE) 2,909 6.6 -5.0°
Reaches altitude 10° 22:46:03 10° 36° (NE) 1,998 5.7 -5.5°
Maximum altitude 22:49:49 28° 96° (E) 1,160 4.5 -6.2°
Drops below altitude 10° 22:53:34 10° 156° (SSE) 1,983 6.0 -6.9°
Sets 22:55:59 0° 168° (SSE) 2,884 7.0 -7.3°
